Time,TemperatureF,DewpointF,PressureIn,WindDirection,WindDirectionDegrees,WindSpeedMPH,WindSpeedGustMPH,Humidity,HourlyPrecipIn,Conditions,Clouds,dailyrainin,SoftwareType,DateUTC
2013-04-02 00:00:00,61.6,22.2,27.29,SE,135,1.3,1.3,22,0.00,,,0.00,WUHU216HW,2013-04-02 07:00:00,
2013-04-02 00:05:00,61.4,22.0,27.29,SE,135,0.0,1.3,22,0.00,,,0.00,WUHU216HW,2013-04-02 07:05:00,
2013-04-02 00:10:00,61.2,21.8,27.29,SE,135,0.0,1.3,22,0.00,,,0.00,WUHU216HW,2013-04-02 07:10:00,
2013-04-02 00:15:00,61.0,21.7,27.29,SE,135,0.7,1.1,22,0.00,,,0.00,WUHU216HW,2013-04-02 07:15:00,
2013-04-02 00:20:00,60.8,21.5,27.29,SE,135,0.0,1.1,22,0.00,,,0.00,WUHU216HW,2013-04-02 07:20:00,
2013-04-02 00:25:00,60.8,21.5,27.29,SSE,158,0.2,1.1,22,0.00,,,0.00,WUHU216HW,2013-04-02 07:25:00,
2013-04-02 00:30:00,60.7,21.3,27.29,SSW,203,0.7,1.1,22,0.00,,,0.00,WUHU216HW,2013-04-02 07:30:00,
2013-04-02 00:35:00,60.5,21.3,27.29,SE,135,0.4,1.3,22,0.00,,,0.00,WUHU216HW,2013-04-02 07:35:00,
2013-04-02 00:40:00,60.1,20.9,27.29,SE,135,0.4,1.3,22,0.00,,,0.00,WUHU216HW,2013-04-02 07:40:00,
2013-04-02 00:45:00,59.9,21.7,27.30,SE,135,0.4,1.3,23,0.00,,,0.00,WUHU216HW,2013-04-02 07:45:00,
2013-04-02 00:50:00,59.8,21.5,27.30,SSE,158,0.4,1.6,23,0.00,,,0.00,WUHU216HW,2013-04-02 07:50:00,
2013-04-02 00:55:00,59.6,21.4,27.30,SSE,158,0.2,1.6,23,0.00,,,0.00,WUHU216HW,2013-04-02 07:55:00,
2013-04-02 01:00:00,59.6,21.4,27.29,SE,135,0.0,1.1,23,0.00,,,0.00,WUHU216HW,2013-04-02 08:00:00,
2013-04-02 01:05:00,59.6,21.4,27.29,SE,135,0.2,1.3,23,0.00,,,0.00,WUHU216HW,2013-04-02 08:05:00,
2013-04-02 01:10:00,59.4,21.3,27.29,SE,135,0.7,1.3,23,0.00,,,0.00,WUHU216HW,2013-04-02 08:10:00,
2013-04-02 01:15:00,59.4,21.3,27.29,ESE,113,1.1,1.3,23,0.00,,,0.00,WUHU216HW,2013-04-02 08:15:00,
2013-04-02 01:21:00,59.4,21.3,27.29,ESE,113,0.2,1.8,23,0.00,,,0.00,WUHU216HW,2013-04-02 08:21:00,
2013-04-02 01:26:00,59.0,20.9,27.29,ESE,113,0.0,1.8,23,0.00,,,0.00,WUHU216HW,2013-04-02 08:26:00,
2013-04-02 01:31:00,58.7,21.6,27.28,SSE,158,0.2,0.7,24,0.00,,,0.00,WUHU216HW,2013-04-02 08:31:00,
2013-04-02 01:36:00,58.5,21.4,27.28,SSE,158,0.4,0.4,24,0.00,,,0.00,WUHU216HW,2013-04-02 08:36:00,
2013-04-02 01:41:00,58.5,21.4,27.28,South,180,0.0,0.9,24,0.00,,,0.00,WUHU216HW,2013-04-02 08:41:00,
2013-04-02 01:46:00,58.3,21.2,27.28,South,180,0.0,0.9,24,0.00,,,0.00,WUHU216HW,2013-04-02 08:46:00,
2013-04-02 01:51:00,58.3,21.2,27.29,SSE,158,0.0,0.7,24,0.00,,,0.00,WUHU216HW,2013-04-02 08:51:00,
2013-04-02 01:56:00,58.3,21.2,27.28,SSE,158,0.0,0.7,24,0.00,,,0.00,WUHU216HW,2013-04-02 08:56:00,
2013-04-02 02:01:00,58.3,21.2,27.28,SSE,158,0.0,0.4,24,0.00,,,0.00,WUHU216HW,2013-04-02 09:01:00,
2013-04-02 02:06:00,58.3,21.2,27.28,SE,135,0.0,0.4,24,0.00,,,0.00,WUHU216HW,2013-04-02 09:06:00,
2013-04-02 02:11:00,58.1,21.2,27.28,SSE,158,0.2,0.4,24,0.00,,,0.00,WUHU216HW,2013-04-02 09:11:00,
2013-04-02 02:16:00,58.1,21.2,27.28,South,180,0.0,0.4,24,0.00,,,0.00,WUHU216HW,2013-04-02 09:16:00,
2013-04-02 02:21:00,58.0,21.0,27.28,SE,135,0.0,0.7,24,0.00,,,0.00,WUHU216HW,2013-04-02 09:21:00,
2013-04-02 02:26:00,57.8,20.8,27.28,ESE,113,0.0,0.7,24,0.00,,,0.00,WUHU216HW,2013-04-02 09:26:00,
2013-04-02 02:31:00,57.6,20.7,27.28,ESE,113,0.0,0.7,24,0.00,,,0.00,WUHU216HW,2013-04-02 09:31:00,
2013-04-02 02:36:00,57.6,21.6,27.28,SSE,158,0.0,0.4,25,0.00,,,0.00,WUHU216HW,2013-04-02 09:36:00,
2013-04-02 02:41:00,57.4,21.5,27.28,South,180,0.4,0.7,25,0.00,,,0.00,WUHU216HW,2013-04-02 09:41:00,
2013-04-02 02:46:00,57.4,21.5,27.28,SSW,203,0.4,0.7,25,0.00,,,0.00,WUHU216HW,2013-04-02 09:46:00,
2013-04-02 02:51:00,57.2,21.3,27.28,South,180,0.2,0.7,25,0.00,,,0.00,WUHU216HW,2013-04-02 09:51:00,
2013-04-02 02:56:00,57.2,21.3,27.28,SSW,203,0.7,0.9,25,0.00,,,0.00,WUHU216HW,2013-04-02 09:56:00,
2013-04-02 03:01:00,57.2,21.3,27.28,South,180,0.2,0.9,25,0.00,,,0.00,WUHU216HW,2013-04-02 10:01:00,
2013-04-02 03:06:00,57.1,21.2,27.28,SSE,158,0.2,1.1,25,0.00,,,0.00,WUHU216HW,2013-04-02 10:06:00,
2013-04-02 03:11:00,56.9,21.1,27.28,SSE,158,0.2,1.1,25,0.00,,,0.00,WUHU216HW,2013-04-02 10:11:00,
2013-04-02 03:16:00,56.7,20.9,27.28,South,180,0.7,1.1,25,0.00,,,0.00,WUHU216HW,2013-04-02 10:16:00,
2013-04-02 03:21:00,56.5,20.7,27.28,SSE,158,0.2,1.1,25,0.00,,,0.00,WUHU216HW,2013-04-02 10:21:00,
2013-04-02 03:26:00,56.3,20.5,27.28,SSE,158,0.0,0.9,25,0.00,,,0.00,WUHU216HW,2013-04-02 10:26:00,
2013-04-02 03:31:00,56.2,21.3,27.28,SSE,158,0.0,0.4,26,0.00,,,0.00,WUHU216HW,2013-04-02 10:31:00,
2013-04-02 03:36:00,56.0,22.1,27.28,SE,135,0.2,0.4,27,0.00,,,0.00,WUHU216HW,2013-04-02 10:36:00,
2013-04-02 03:41:00,55.8,22.0,27.28,ESE,113,0.7,1.1,27,0.00,,,0.00,WUHU216HW,2013-04-02 10:41:00,
2013-04-02 03:46:00,55.8,22.0,27.28,ESE,113,0.4,1.1,27,0.00,,,0.00,WUHU216HW,2013-04-02 10:46:00,
2013-04-02 03:50:00,55.4,21.7,27.28,ESE,113,1.1,1.3,27,0.00,,,0.00,WUHU216HW,2013-04-02 10:50:00,
2013-04-02 03:56:00,55.1,21.3,27.28,ESE,113,0.4,1.3,27,0.00,,,0.00,WUHU216HW,2013-04-02 10:56:00,
2013-04-02 04:01:00,54.7,21.1,27.28,ESE,113,0.9,1.3,27,0.00,,,0.00,WUHU216HW,2013-04-02 11:01:00,
2013-04-02 04:06:00,54.2,20.6,27.28,ESE,113,0.4,1.3,27,0.00,,,0.00,WUHU216HW,2013-04-02 11:06:00,
2013-04-02 04:10:00,54.0,21.4,27.28,ESE,113,1.1,1.3,28,0.00,,,0.00,WUHU216HW,2013-04-02 11:10:00,
2013-04-02 04:15:00,53.6,21.2,27.28,East,90,0.9,1.3,28,0.00,,,0.00,WUHU216HW,2013-04-02 11:15:00,
2013-04-02 04:20:00,53.6,21.2,27.28,ESE,113,1.3,1.3,28,0.00,,,0.00,WUHU216HW,2013-04-02 11:20:00,
2013-04-02 04:26:00,53.6,21.2,27.28,East,90,1.1,1.3,28,0.00,,,0.00,WUHU216HW,2013-04-02 11:26:00,
2013-04-02 04:31:00,53.5,21.0,27.29,ESE,113,0.0,1.3,28,0.00,,,0.00,WUHU216HW,2013-04-02 11:31:00,
2013-04-02 04:36:00,53.3,20.8,27.29,ESE,113,0.4,1.3,28,0.00,,,0.00,WUHU216HW,2013-04-02 11:36:00,
2013-04-02 04:41:00,53.1,20.7,27.29,ESE,113,0.4,1.3,28,0.00,,,0.00,WUHU216HW,2013-04-02 11:41:00,
2013-04-02 04:46:00,53.1,20.7,27.29,ESE,113,0.4,1.1,28,0.00,,,0.00,WUHU216HW,2013-04-02 11:46:00,
2013-04-02 04:50:00,53.1,20.7,27.29,ESE,113,0.4,1.1,28,0.00,,,0.00,WUHU216HW,2013-04-02 11:50:00,
2013-04-02 04:55:00,53.1,20.7,27.29,ESE,113,0.4,1.1,28,0.00,,,0.00,WUHU216HW,2013-04-02 11:55:00,
2013-04-02 05:00:00,52.9,21.4,27.29,SE,135,0.4,1.1,29,0.00,,,0.00,WUHU216HW,2013-04-02 12:00:00,
2013-04-02 05:05:00,53.1,21.6,27.29,SE,135,0.9,1.1,29,0.00,,,0.00,WUHU216HW,2013-04-02 12:05:00,
2013-04-02 05:10:00,53.1,21.6,27.29,SE,135,0.4,1.6,29,0.00,,,0.00,WUHU216HW,2013-04-02 12:10:00,
2013-04-02 05:16:00,53.1,21.6,27.29,SE,135,1.1,1.6,29,0.00,,,0.00,WUHU216HW,2013-04-02 12:16:00,
2013-04-02 05:20:00,53.1,21.6,27.29,SE,135,0.4,1.3,29,0.00,,,0.00,WUHU216HW,2013-04-02 12:20:00,
2013-04-02 05:25:00,53.1,21.6,27.29,ESE,113,0.7,1.3,29,0.00,,,0.00,WUHU216HW,2013-04-02 12:25:00,
2013-04-02 05:30:00,53.1,21.6,27.29,SE,135,1.1,1.3,29,0.00,,,0.00,WUHU216HW,2013-04-02 12:30:00,
2013-04-02 05:35:00,53.1,21.6,27.29,SE,135,1.1,1.3,29,0.00,,,0.00,WUHU216HW,2013-04-02 12:35:00,
2013-04-02 05:40:00,53.1,21.6,27.29,ESE,113,0.7,1.6,29,0.00,,,0.00,WUHU216HW,2013-04-02 12:40:00,
2013-04-02 05:45:00,53.1,21.6,27.29,SE,135,0.2,1.6,29,0.00,,,0.00,WUHU216HW,2013-04-02 12:45:00,
2013-04-02 05:50:00,52.9,21.4,27.29,ESE,113,0.7,1.1,29,0.00,,,0.00,WUHU216HW,2013-04-02 12:50:00,
2013-04-02 05:55:00,52.7,21.3,27.30,ESE,113,0.0,1.6,29,0.00,,,0.00,WUHU216HW,2013-04-02 12:55:00,
2013-04-02 06:00:00,52.6,21.2,27.30,East,90,1.6,1.8,29,0.00,,,0.00,WUHU216HW,2013-04-02 13:00:00,
2013-04-02 06:05:00,52.2,21.8,27.29,SE,135,2.0,2.5,30,0.00,,,0.00,WUHU216HW,2013-04-02 13:05:00,
2013-04-02 06:10:00,52.0,21.6,27.30,SE,135,2.2,3.1,30,0.00,,,0.00,WUHU216HW,2013-04-02 13:10:00,
2013-04-02 06:15:00,51.7,21.2,27.30,ESE,113,1.6,3.1,30,0.00,,,0.00,WUHU216HW,2013-04-02 13:15:00,
2013-04-02 06:20:00,51.5,21.8,27.30,ESE,113,2.9,3.4,31,0.00,,,0.00,WUHU216HW,2013-04-02 13:20:00,
2013-04-02 06:25:00,51.1,21.4,27.30,ESE,113,1.1,3.4,31,0.00,,,0.00,WUHU216HW,2013-04-02 13:25:00,
2013-04-02 06:30:00,50.8,21.2,27.30,ENE,68,1.3,3.1,31,0.00,,,0.00,WUHU216HW,2013-04-02 13:30:00,
2013-04-02 06:35:00,50.8,21.2,27.30,SE,135,1.8,2.7,31,0.00,,,0.00,WUHU216HW,2013-04-02 13:35:00,
2013-04-02 06:40:00,50.4,20.8,27.30,East,90,1.1,2.7,31,0.00,,,0.00,WUHU216HW,2013-04-02 13:40:00,
2013-04-02 06:45:00,50.4,20.8,27.30,ESE,113,2.0,2.5,31,0.00,,,0.00,WUHU216HW,2013-04-02 13:45:00,
2013-04-02 06:50:00,50.4,20.8,27.31,East,90,0.4,2.5,31,0.00,,,0.00,WUHU216HW,2013-04-02 13:50:00,
2013-04-02 06:55:00,50.6,21.0,27.31,East,90,0.7,2.2,31,0.00,,,0.00,WUHU216HW,2013-04-02 13:55:00,
2013-04-02 07:00:00,50.8,21.2,27.31,SE,135,1.8,2.0,31,0.00,,,0.00,WUHU216HW,2013-04-02 14:00:00,
2013-04-02 07:05:00,50.9,22.0,27.31,ESE,113,0.9,2.0,32,0.00,,,0.00,WUHU216HW,2013-04-02 14:05:00,
2013-04-02 07:10:00,51.5,21.8,27.31,SE,135,3.1,3.1,31,0.00,,,0.00,WUHU216HW,2013-04-02 14:10:00,
2013-04-02 07:15:00,51.8,22.2,27.32,ENE,68,1.6,3.1,31,0.00,,,0.00,WUHU216HW,2013-04-02 14:15:00,
2013-04-02 07:20:00,52.2,22.4,27.32,SE,135,1.8,3.4,31,0.00,,,0.00,WUHU216HW,2013-04-02 14:20:00,
2013-04-02 07:25:00,52.4,22.6,27.32,SE,135,1.8,3.4,31,0.00,,,0.00,WUHU216HW,2013-04-02 14:25:00,
2013-04-02 07:30:00,52.7,23.0,27.32,SE,135,2.0,3.1,31,0.00,,,0.00,WUHU216HW,2013-04-02 14:30:00,
2013-04-02 07:35:00,53.3,22.7,27.32,NE,45,3.4,4.0,30,0.00,,,0.00,WUHU216HW,2013-04-02 14:35:00,
2013-04-02 07:40:00,53.5,22.9,27.32,SE,135,1.3,4.0,30,0.00,,,0.00,WUHU216HW,2013-04-02 14:40:00,
2013-04-02 07:45:00,53.8,23.2,27.32,East,90,1.8,3.4,30,0.00,,,0.00,WUHU216HW,2013-04-02 14:45:00,
2013-04-02 07:50:00,54.4,23.6,27.33,WNW,293,1.1,3.1,30,0.00,,,0.00,WUHU216HW,2013-04-02 14:50:00,
2013-04-02 07:55:00,54.9,23.1,27.33,ESE,113,0.7,3.1,29,0.00,,,0.00,WUHU216HW,2013-04-02 14:55:00,
2013-04-02 08:00:00,55.1,23.2,27.33,ESE,113,0.9,2.5,29,0.00,,,0.00,WUHU216HW,2013-04-02 15:00:00,
2013-04-02 08:05:00,55.6,23.7,27.33,ESE,113,1.3,2.5,29,0.00,,,0.00,WUHU216HW,2013-04-02 15:05:00,
2013-04-02 08:10:00,56.0,24.0,27.33,ENE,68,2.5,2.5,29,0.00,,,0.00,WUHU216HW,2013-04-02 15:10:00,
2013-04-02 08:15:00,56.2,23.2,27.33,ESE,113,0.2,2.5,28,0.00,,,0.00,WUHU216HW,2013-04-02 15:15:00,
2013-04-02 08:20:00,56.5,23.6,27.33,East,90,0.9,2.5,28,0.00,,,0.00,WUHU216HW,2013-04-02 15:20:00,
2013-04-02 08:25:00,56.9,23.9,27.33,ESE,113,0.2,2.0,28,0.00,,,0.00,WUHU216HW,2013-04-02 15:25:00,
2013-04-02 08:30:00,57.2,24.2,27.33,SE,135,0.4,1.3,28,0.00,,,0.00,WUHU216HW,2013-04-02 15:30:00,
2013-04-02 08:35:00,57.8,23.7,27.34,SW,225,1.6,1.8,27,0.00,,,0.00,WUHU216HW,2013-04-02 15:35:00,
2013-04-02 08:40:00,58.1,24.0,27.33,SSW,203,1.3,1.8,27,0.00,,,0.00,WUHU216HW,2013-04-02 15:40:00,
2013-04-02 08:45:00,58.5,24.3,27.34,SSE,158,1.6,2.2,27,0.00,,,0.00,WUHU216HW,2013-04-02 15:45:00,
2013-04-02 08:50:00,59.0,23.9,27.34,WSW,248,1.8,2.2,26,0.00,,,0.00,WUHU216HW,2013-04-02 15:50:00,
2013-04-02 08:55:00,59.6,23.3,27.34,North,0,0.4,3.4,25,0.00,,,0.00,WUHU216HW,2013-04-02 15:55:00,
2013-04-02 09:00:00,60.1,23.8,27.34,WSW,248,1.1,3.4,25,0.00,,,0.00,WUHU216HW,2013-04-02 16:00:00,
2013-04-02 09:05:00,60.7,23.3,27.34,West,270,1.8,2.2,24,0.00,,,0.00,WUHU216HW,2013-04-02 16:05:00,
2013-04-02 09:11:00,61.0,23.6,27.34,SE,135,1.1,2.2,24,0.00,,,0.00,WUHU216HW,2013-04-02 16:11:00,
2013-04-02 09:16:00,61.6,24.0,27.34,WNW,293,1.6,4.5,24,0.00,,,0.00,WUHU216HW,2013-04-02 16:16:00,
2013-04-02 09:21:00,61.9,24.3,27.34,West,270,1.1,4.5,24,0.00,,,0.00,WUHU216HW,2013-04-02 16:21:00,
2013-04-02 09:26:00,62.5,24.9,27.34,West,270,1.3,3.4,24,0.00,,,0.00,WUHU216HW,2013-04-02 16:26:00,
2013-04-02 09:31:00,62.8,24.1,27.34,SW,225,1.8,3.4,23,0.00,,,0.00,WUHU216HW,2013-04-02 16:31:00,
2013-04-02 09:36:00,63.4,24.6,27.34,West,270,1.1,3.4,23,0.00,,,0.00,WUHU216HW,2013-04-02 16:36:00,
2013-04-02 09:41:00,63.7,23.9,27.35,WNW,293,2.0,3.4,22,0.00,,,0.00,WUHU216HW,2013-04-02 16:41:00,
2013-04-02 09:46:00,63.9,25.0,27.35,WNW,293,2.5,2.7,23,0.00,,,0.00,WUHU216HW,2013-04-02 16:46:00,
2013-04-02 09:51:00,64.4,24.5,27.34,West,270,1.8,2.9,22,0.00,,,0.00,WUHU216HW,2013-04-02 16:51:00,
2013-04-02 09:56:00,64.4,24.5,27.34,SSW,203,1.6,2.9,22,0.00,,,0.00,WUHU216HW,2013-04-02 16:56:00,
2013-04-02 10:01:00,64.8,24.8,27.34,West,270,2.5,3.6,22,0.00,,,0.00,WUHU216HW,2013-04-02 17:01:00,
2013-04-02 10:07:00,65.2,25.1,27.34,WNW,293,1.1,3.6,22,0.00,,,0.00,WUHU216HW,2013-04-02 17:07:00,
2013-04-02 10:12:00,65.3,25.2,27.34,South,180,1.6,2.7,22,0.00,,,0.00,WUHU216HW,2013-04-02 17:12:00,
2013-04-02 10:17:00,65.5,25.4,27.34,South,180,2.7,3.1,22,0.00,,,0.00,WUHU216HW,2013-04-02 17:17:00,
2013-04-02 10:22:00,65.9,25.7,27.33,SW,225,1.1,3.1,22,0.00,,,0.00,WUHU216HW,2013-04-02 17:22:00,
2013-04-02 10:27:00,66.6,25.3,27.33,West,270,4.5,4.5,21,0.00,,,0.00,WUHU216HW,2013-04-02 17:27:00,
2013-04-02 10:32:00,67.0,25.6,27.33,WNW,293,3.4,4.5,21,0.00,,,0.00,WUHU216HW,2013-04-02 17:32:00,
2013-04-02 10:37:00,67.3,24.9,27.33,West,270,2.9,3.8,20,0.00,,,0.00,WUHU216HW,2013-04-02 17:37:00,
2013-04-02 10:42:00,67.7,25.2,27.33,NW,315,2.0,3.8,20,0.00,,,0.00,WUHU216HW,2013-04-02 17:42:00,
2013-04-02 10:47:00,68.6,24.4,27.33,West,270,0.7,4.0,19,0.00,,,0.00,WUHU216HW,2013-04-02 17:47:00,
2013-04-02 10:52:00,69.1,23.2,27.33,WSW,248,1.3,5.6,18,0.00,,,0.00,WUHU216HW,2013-04-02 17:52:00,
2013-04-02 10:57:00,69.3,23.3,27.33,West,270,1.8,5.6,18,0.00,,,0.00,WUHU216HW,2013-04-02 17:57:00,
2013-04-02 11:03:00,69.3,23.3,27.33,NE,45,3.1,4.7,18,0.00,,,0.00,WUHU216HW,2013-04-02 18:03:00,
2013-04-02 11:08:00,69.5,23.5,27.33,NW,315,2.7,5.1,18,0.00,,,0.00,WUHU216HW,2013-04-02 18:08:00,
2013-04-02 11:13:00,70.2,24.0,27.33,SSW,203,3.1,6.0,18,0.00,,,0.00,WUHU216HW,2013-04-02 18:13:00,
2013-04-02 11:18:00,70.7,24.5,27.33,NNW,338,1.8,6.0,18,0.00,,,0.00,WUHU216HW,2013-04-02 18:18:00,
2013-04-02 11:23:00,70.9,23.1,27.32,NW,315,4.5,5.4,17,0.00,,,0.00,WUHU216HW,2013-04-02 18:23:00,
2013-04-02 11:28:00,71.3,23.3,27.32,NW,315,3.4,4.5,17,0.00,,,0.00,WUHU216HW,2013-04-02 18:28:00,
2013-04-02 11:33:00,71.3,23.3,27.32,NNW,338,3.4,5.4,17,0.00,,,0.00,WUHU216HW,2013-04-02 18:33:00,
2013-04-02 11:38:00,70.9,23.1,27.32,North,0,1.1,5.4,17,0.00,,,0.00,WUHU216HW,2013-04-02 18:38:00,
2013-04-02 11:43:00,70.9,24.7,27.32,WSW,248,1.8,4.3,18,0.00,,,0.00,WUHU216HW,2013-04-02 18:43:00,
2013-04-02 11:48:00,71.5,23.4,27.32,West,270,6.7,6.9,17,0.00,,,0.00,WUHU216HW,2013-04-02 18:48:00,
2013-04-02 11:53:00,72.2,24.0,27.32,NNW,338,3.8,6.9,17,0.00,,,0.00,WUHU216HW,2013-04-02 18:53:00,
2013-04-02 11:58:00,73.4,23.5,27.31,SSW,203,1.6,6.5,16,0.00,,,0.00,WUHU216HW,2013-04-02 18:58:00,
2013-04-02 12:03:00,75.1,23.1,27.31,WSW,248,4.5,4.5,15,0.00,,,0.00,WUHU216HW,2013-04-02 19:03:00,
2013-04-02 12:08:00,76.0,23.8,27.31,South,180,1.8,4.5,15,0.00,,,0.00,WUHU216HW,2013-04-02 19:08:00,
2013-04-02 12:13:00,76.5,24.2,27.30,WSW,248,2.0,4.5,15,0.00,,,0.00,WUHU216HW,2013-04-02 19:13:00,
2013-04-02 12:18:00,76.3,20.8,27.30,WNW,293,2.9,6.9,13,0.00,,,0.00,WUHU216HW,2013-04-02 19:18:00,
2013-04-02 12:23:00,76.1,20.6,27.30,WSW,248,4.0,7.2,13,0.00,,,0.00,WUHU216HW,2013-04-02 19:23:00,
2013-04-02 12:28:00,75.4,20.1,27.30,West,270,4.7,7.2,13,0.00,,,0.00,WUHU216HW,2013-04-02 19:28:00,
2013-04-02 12:33:00,75.1,19.8,27.30,West,270,3.8,5.6,13,0.00,,,0.00,WUHU216HW,2013-04-02 19:33:00,
2013-04-02 12:38:00,75.2,19.9,27.30,NNW,338,4.0,6.3,13,0.00,,,0.00,WUHU216HW,2013-04-02 19:38:00,
2013-04-02 12:43:00,75.8,20.3,27.30,ENE,68,3.4,6.3,13,0.00,,,0.00,WUHU216HW,2013-04-02 19:43:00,
2013-04-02 12:48:00,75.6,18.5,27.30,NNE,23,6.9,6.9,12,0.00,,,0.00,WUHU216HW,2013-04-02 19:48:00,
2013-04-02 12:53:00,75.4,20.1,27.29,SW,225,3.4,6.9,13,0.00,,,0.00,WUHU216HW,2013-04-02 19:53:00,
2013-04-02 12:58:00,75.4,20.1,27.29,NE,45,3.6,5.4,13,0.00,,,0.00,WUHU216HW,2013-04-02 19:58:00,
2013-04-02 13:03:00,76.0,18.8,27.29,West,270,3.8,5.4,12,0.00,,,0.00,WUHU216HW,2013-04-02 20:03:00,
2013-04-02 13:08:00,76.1,20.6,27.29,WNW,293,4.0,7.4,13,0.00,,,0.00,WUHU216HW,2013-04-02 20:08:00,
2013-04-02 13:14:00,76.0,18.8,27.29,SW,225,4.0,7.4,12,0.00,,,0.00,WUHU216HW,2013-04-02 20:14:00,
2013-04-02 13:19:00,75.8,18.7,27.29,NW,315,2.9,5.8,12,0.00,,,0.00,WUHU216HW,2013-04-02 20:19:00,
2013-04-02 13:24:00,76.0,18.8,27.29,West,270,2.7,6.5,12,0.00,,,0.00,WUHU216HW,2013-04-02 20:24:00,
2013-04-02 13:29:00,76.0,18.8,27.28,NW,315,3.4,6.5,12,0.00,,,0.00,WUHU216HW,2013-04-02 20:29:00,
2013-04-02 13:34:00,76.7,19.5,27.28,West,270,3.6,5.8,12,0.00,,,0.00,WUHU216HW,2013-04-02 20:34:00,
2013-04-02 13:39:00,76.9,19.5,27.28,WSW,248,2.7,5.8,12,0.00,,,0.00,WUHU216HW,2013-04-02 20:39:00,
2013-04-02 13:44:00,76.9,19.5,27.28,North,0,1.1,4.5,12,0.00,,,0.00,WUHU216HW,2013-04-02 20:44:00,
2013-04-02 13:49:00,77.0,19.7,27.27,NNW,338,3.8,3.8,12,0.00,,,0.00,WUHU216HW,2013-04-02 20:49:00,
2013-04-02 13:54:00,77.6,18.5,27.27,NNW,338,4.5,4.9,11,0.00,,,0.00,WUHU216HW,2013-04-02 20:54:00,
2013-04-02 13:59:00,77.2,18.2,27.27,WNW,293,5.1,5.4,11,0.00,,,0.00,WUHU216HW,2013-04-02 20:59:00,
2013-04-02 14:04:00,77.4,20.0,27.27,NW,315,6.3,6.3,12,0.00,,,0.00,WUHU216HW,2013-04-02 21:04:00,
2013-04-02 14:09:00,77.8,18.5,27.27,North,0,2.7,8.5,11,0.00,,,0.00,WUHU216HW,2013-04-02 21:09:00,
2013-04-02 14:14:00,77.9,18.7,27.27,West,270,1.8,8.5,11,0.00,,,0.00,WUHU216HW,2013-04-02 21:14:00,
2013-04-02 14:19:00,78.1,18.8,27.27,NW,315,2.7,4.7,11,0.00,,,0.00,WUHU216HW,2013-04-02 21:19:00,
2013-04-02 14:24:00,78.3,18.9,27.26,NW,315,4.0,4.9,11,0.00,,,0.00,WUHU216HW,2013-04-02 21:24:00,
2013-04-02 14:29:00,78.1,18.8,27.27,West,270,8.1,8.7,11,0.00,,,0.00,WUHU216HW,2013-04-02 21:29:00,
2013-04-02 14:34:00,77.9,18.7,27.26,West,270,4.3,8.7,11,0.00,,,0.00,WUHU216HW,2013-04-02 21:34:00,
2013-04-02 14:39:00,77.9,20.3,27.26,SW,225,2.0,6.3,12,0.00,,,0.00,WUHU216HW,2013-04-02 21:39:00,
2013-04-02 14:44:00,78.1,18.8,27.26,West,270,1.1,6.9,11,0.00,,,0.00,WUHU216HW,2013-04-02 21:44:00,
2013-04-02 14:49:00,78.1,18.8,27.26,NW,315,3.1,6.9,11,0.00,,,0.00,WUHU216HW,2013-04-02 21:49:00,
2013-04-02 14:54:00,78.1,18.8,27.26,West,270,3.8,6.7,11,0.00,,,0.00,WUHU216HW,2013-04-02 21:54:00,
2013-04-02 14:59:00,78.1,18.8,27.25,SW,225,3.8,6.7,11,0.00,,,0.00,WUHU216HW,2013-04-02 21:59:00,
2013-04-02 15:04:00,78.1,18.8,27.26,NNW,338,3.4,5.4,11,0.00,,,0.00,WUHU216HW,2013-04-02 22:04:00,
2013-04-02 15:09:00,77.9,20.3,27.25,SW,225,2.7,4.7,12,0.00,,,0.00,WUHU216HW,2013-04-02 22:09:00,
2013-04-02 15:14:00,78.3,20.6,27.25,West,270,1.8,4.7,12,0.00,,,0.00,WUHU216HW,2013-04-02 22:14:00,
2013-04-02 15:19:00,78.5,19.1,27.25,West,270,4.0,4.9,11,0.00,,,0.00,WUHU216HW,2013-04-02 22:19:00,
2013-04-02 15:24:00,78.5,19.1,27.25,North,0,6.0,7.4,11,0.00,,,0.00,WUHU216HW,2013-04-02 22:24:00,
2013-04-02 15:29:00,78.5,19.1,27.25,West,270,6.0,8.5,11,0.00,,,0.00,WUHU216HW,2013-04-02 22:29:00,
2013-04-02 15:34:00,78.7,19.2,27.25,NW,315,2.9,8.5,11,0.00,,,0.00,WUHU216HW,2013-04-02 22:34:00,
2013-04-02 15:39:00,78.8,19.4,27.25,NW,315,2.7,6.9,11,0.00,,,0.00,WUHU216HW,2013-04-02 22:39:00,
2013-04-02 15:44:00,78.5,19.1,27.24,WNW,293,3.6,8.5,11,0.00,,,0.00,WUHU216HW,2013-04-02 22:44:00,
2013-04-02 15:49:00,78.5,19.1,27.25,NW,315,4.5,8.5,11,0.00,,,0.00,WUHU216HW,2013-04-02 22:49:00,
2013-04-02 15:55:00,78.8,21.0,27.25,ESE,113,2.5,7.2,12,0.00,,,0.00,WUHU216HW,2013-04-02 22:55:00,
2013-04-02 16:00:00,79.0,19.4,27.25,WNW,293,3.8,6.7,11,0.00,,,0.00,WUHU216HW,2013-04-02 23:00:00,
2013-04-02 16:05:00,78.8,19.4,27.25,West,270,3.8,7.4,11,0.00,,,0.00,WUHU216HW,2013-04-02 23:05:00,
2013-04-02 16:10:00,78.7,19.2,27.25,North,0,3.6,7.4,11,0.00,,,0.00,WUHU216HW,2013-04-02 23:10:00,
2013-04-02 16:15:00,78.8,19.4,27.25,NNW,338,2.9,7.4,11,0.00,,,0.00,WUHU216HW,2013-04-02 23:15:00,
2013-04-02 16:20:00,78.8,19.4,27.25,WSW,248,4.0,6.9,11,0.00,,,0.00,WUHU216HW,2013-04-02 23:20:00,
2013-04-02 16:25:00,78.8,21.0,27.25,NNW,338,2.7,5.6,12,0.00,,,0.00,WUHU216HW,2013-04-02 23:25:00,
2013-04-02 16:30:00,79.0,19.4,27.25,West,270,2.9,5.8,11,0.00,,,0.00,WUHU216HW,2013-04-02 23:30:00,
2013-04-02 16:35:00,79.0,19.4,27.25,West,270,1.8,5.8,11,0.00,,,0.00,WUHU216HW,2013-04-02 23:35:00,
2013-04-02 16:40:00,78.1,20.4,27.25,NW,315,5.4,7.6,12,0.00,,,0.00,WUHU216HW,2013-04-02 23:40:00,
2013-04-02 16:45:00,78.1,20.4,27.25,West,270,3.4,7.6,12,0.00,,,0.00,WUHU216HW,2013-04-02 23:45:00,
2013-04-02 16:50:00,78.1,20.4,27.25,NNW,338,4.9,5.8,12,0.00,,,0.00,WUHU216HW,2013-04-02 23:50:00,
2013-04-02 16:55:00,77.4,20.0,27.25,NW,315,2.5,5.4,12,0.00,,,0.00,WUHU216HW,2013-04-02 23:55:00,
2013-04-02 17:00:00,77.4,20.0,27.26,NW,315,2.5,5.1,12,0.00,,,0.00,WUHU216HW,2013-04-03 00:00:00,
2013-04-02 17:05:00,77.4,20.0,27.26,West,270,2.5,5.4,12,0.00,,,0.00,WUHU216HW,2013-04-03 00:05:00,
2013-04-02 17:10:00,77.6,20.1,27.26,ENE,68,3.8,9.4,12,0.00,,,0.00,WUHU216HW,2013-04-03 00:10:00,
2013-04-02 17:15:00,77.4,20.0,27.26,NW,315,3.6,5.6,12,0.00,,,0.00,WUHU216HW,2013-04-03 00:15:00,
2013-04-02 17:20:00,77.2,19.8,27.25,NNW,338,2.9,5.6,12,0.00,,,0.00,WUHU216HW,2013-04-03 00:20:00,
2013-04-02 17:26:00,77.2,19.8,27.26,WSW,248,5.1,5.4,12,0.00,,,0.00,WUHU216HW,2013-04-03 00:26:00,
2013-04-02 17:31:00,77.4,20.0,27.25,NNW,338,2.2,5.6,12,0.00,,,0.00,WUHU216HW,2013-04-03 00:31:00,
2013-04-02 17:36:00,77.6,20.1,27.25,NW,315,3.4,6.5,12,0.00,,,0.00,WUHU216HW,2013-04-03 00:36:00,
2013-04-02 17:41:00,77.0,21.3,27.26,West,270,1.3,6.5,13,0.00,,,0.00,WUHU216HW,2013-04-03 00:41:00,
2013-04-02 17:46:00,76.9,21.3,27.26,WNW,293,2.9,4.0,13,0.00,,,0.00,WUHU216HW,2013-04-03 00:46:00,
2013-04-02 17:51:00,76.3,20.8,27.26,WNW,293,2.9,4.0,13,0.00,,,0.00,WUHU216HW,2013-04-03 00:51:00,
2013-04-02 17:56:00,76.3,20.8,27.26,WNW,293,2.5,5.1,13,0.00,,,0.00,WUHU216HW,2013-04-03 00:56:00,
2013-04-02 18:01:00,76.0,20.5,27.26,NW,315,3.4,5.1,13,0.00,,,0.00,WUHU216HW,2013-04-03 01:01:00,
2013-04-02 18:07:00,75.6,23.5,27.26,NNW,338,2.5,5.4,15,0.00,,,0.00,WUHU216HW,2013-04-03 01:07:00,
2013-04-02 18:12:00,75.6,23.5,27.26,West,270,3.1,5.4,15,0.00,,,0.00,WUHU216HW,2013-04-03 01:12:00,
2013-04-02 18:17:00,75.2,23.2,27.26,WNW,293,1.1,4.9,15,0.00,,,0.00,WUHU216HW,2013-04-03 01:17:00,
2013-04-02 18:22:00,74.9,23.0,27.26,NE,45,2.0,5.1,15,0.00,,,0.00,WUHU216HW,2013-04-03 01:22:00,
2013-04-02 18:27:00,74.3,24.2,27.26,West,270,2.7,5.1,16,0.00,,,0.00,WUHU216HW,2013-04-03 01:27:00,
2013-04-02 18:32:00,74.0,24.0,27.27,WNW,293,3.6,4.9,16,0.00,,,0.00,WUHU216HW,2013-04-03 01:32:00,
2013-04-02 18:37:00,73.8,23.8,27.27,NNW,338,0.9,4.7,16,0.00,,,0.00,WUHU216HW,2013-04-03 01:37:00,
2013-04-02 18:42:00,73.4,23.5,27.27,NW,315,2.5,4.7,16,0.00,,,0.00,WUHU216HW,2013-04-03 01:42:00,
2013-04-02 18:47:00,72.9,23.0,27.27,SW,225,2.2,4.7,16,0.00,,,0.00,WUHU216HW,2013-04-03 01:47:00,
2013-04-02 18:52:00,72.5,22.8,27.27,NW,315,3.4,4.7,16,0.00,,,0.00,WUHU216HW,2013-04-03 01:52:00,
2013-04-02 18:57:00,72.4,22.6,27.27,West,270,1.3,4.7,16,0.00,,,0.00,WUHU216HW,2013-04-03 01:57:00,
2013-04-02 19:02:00,72.0,22.2,27.27,North,0,3.6,4.7,16,0.00,,,0.00,WUHU216HW,2013-04-03 02:02:00,
2013-04-02 19:07:00,71.6,22.0,27.27,North,0,2.5,4.3,16,0.00,,,0.00,WUHU216HW,2013-04-03 02:07:00,
2013-04-02 19:12:00,71.5,23.4,27.27,NNW,338,2.5,5.4,17,0.00,,,0.00,WUHU216HW,2013-04-03 02:12:00,
2013-04-02 19:17:00,71.5,23.4,27.28,WSW,248,1.8,6.9,17,0.00,,,0.00,WUHU216HW,2013-04-03 02:17:00,
2013-04-02 19:22:00,71.1,23.1,27.28,WNW,293,4.3,6.9,17,0.00,,,0.00,WUHU216HW,2013-04-03 02:22:00,
2013-04-02 19:27:00,70.7,22.9,27.28,NW,315,1.8,5.4,17,0.00,,,0.00,WUHU216HW,2013-04-03 02:27:00,
2013-04-02 19:33:00,70.4,22.6,27.28,West,270,2.0,5.4,17,0.00,,,0.00,WUHU216HW,2013-04-03 02:33:00,
2013-04-02 19:38:00,70.2,22.4,27.28,WNW,293,3.4,4.7,17,0.00,,,0.00,WUHU216HW,2013-04-03 02:38:00,
2013-04-02 19:43:00,70.0,22.3,27.28,West,270,1.3,4.7,17,0.00,,,0.00,WUHU216HW,2013-04-03 02:43:00,
2013-04-02 19:48:00,69.7,22.0,27.28,East,90,2.5,3.6,17,0.00,,,0.00,WUHU216HW,2013-04-03 02:48:00,
2013-04-02 19:53:00,69.5,23.5,27.28,WSW,248,3.1,3.1,18,0.00,,,0.00,WUHU216HW,2013-04-03 02:53:00,
2013-04-02 19:58:00,69.3,23.3,27.28,NNW,338,0.9,3.6,18,0.00,,,0.00,WUHU216HW,2013-04-03 02:58:00,
2013-04-02 20:03:00,69.1,23.2,27.28,West,270,1.1,3.6,18,0.00,,,0.00,WUHU216HW,2013-04-03 03:03:00,
2013-04-02 20:08:00,68.9,23.0,27.29,NW,315,1.8,2.5,18,0.00,,,0.00,WUHU216HW,2013-04-03 03:08:00,
2013-04-02 20:13:00,68.6,22.8,27.29,NW,315,1.8,2.9,18,0.00,,,0.00,WUHU216HW,2013-04-03 03:13:00,
2013-04-02 20:18:00,68.4,22.7,27.29,WNW,293,0.9,2.9,18,0.00,,,0.00,WUHU216HW,2013-04-03 03:18:00,
2013-04-02 20:23:00,68.2,22.5,27.29,NW,315,1.8,2.9,18,0.00,,,0.00,WUHU216HW,2013-04-03 03:23:00,
2013-04-02 20:28:00,67.7,22.1,27.29,WNW,293,0.7,2.5,18,0.00,,,0.00,WUHU216HW,2013-04-03 03:28:00,
2013-04-02 20:33:00,67.3,21.7,27.30,NNW,338,0.9,1.8,18,0.00,,,0.00,WUHU216HW,2013-04-03 03:33:00,
2013-04-02 20:38:00,67.1,23.1,27.30,NW,315,0.4,1.1,19,0.00,,,0.00,WUHU216HW,2013-04-03 03:38:00,
2013-04-02 20:44:00,67.0,23.1,27.30,NW,315,0.9,1.1,19,0.00,,,0.00,WUHU216HW,2013-04-03 03:44:00,
2013-04-02 20:49:00,66.8,22.9,27.30,West,270,0.0,1.1,19,0.00,,,0.00,WUHU216HW,2013-04-03 03:49:00,
2013-04-02 20:54:00,66.4,22.5,27.30,West,270,0.2,1.1,19,0.00,,,0.00,WUHU216HW,2013-04-03 03:54:00,
2013-04-02 20:59:00,66.2,22.3,27.30,WNW,293,0.2,0.7,19,0.00,,,0.00,WUHU216HW,2013-04-03 03:59:00,
2013-04-02 21:00:00,66.2,22.3,27.30,NNW,338,0.4,0.9,19,0.00,,,0.00,WUHU216HW,2013-04-03 04:00:00,
2013-04-02 21:05:00,65.9,22.1,27.30,NW,315,0.0,0.9,19,0.00,,,0.00,WUHU216HW,2013-04-03 04:05:00,
2013-04-02 21:10:00,65.9,22.1,27.30,NW,315,0.0,0.4,19,0.00,,,0.00,WUHU216HW,2013-04-03 04:10:00,
2013-04-02 21:15:00,65.7,22.0,27.30,NW,315,0.0,0.2,19,0.00,,,0.00,WUHU216HW,2013-04-03 04:15:00,
2013-04-02 21:20:00,65.2,21.5,27.31,NW,315,0.0,0.0,19,0.00,,,0.00,WUHU216HW,2013-04-03 04:20:00,
2013-04-02 21:25:00,64.6,21.1,27.31,NW,315,0.0,0.0,19,0.00,,,0.00,WUHU216HW,2013-04-03 04:25:00,
2013-04-02 21:30:00,63.9,20.5,27.31,NW,315,0.0,0.0,19,0.00,,,0.00,WUHU216HW,2013-04-03 04:30:00,
2013-04-02 21:35:00,63.4,20.1,27.31,NW,315,0.0,0.0,19,0.00,,,0.00,WUHU216HW,2013-04-03 04:35:00,
2013-04-02 21:40:00,63.0,19.8,27.31,NW,315,0.0,0.0,19,0.00,,,0.00,WUHU216HW,2013-04-03 04:40:00,
2013-04-02 21:45:00,62.6,22.1,27.31,NW,315,0.0,0.0,21,0.00,,,0.00,WUHU216HW,2013-04-03 04:45:00,
2013-04-02 21:50:00,62.5,21.9,27.31,NW,315,0.0,0.0,21,0.00,,,0.00,WUHU216HW,2013-04-03 04:50:00,
2013-04-02 21:55:00,62.5,21.9,27.32,WSW,248,0.0,0.4,21,0.00,,,0.00,WUHU216HW,2013-04-03 04:55:00,
2013-04-02 22:00:00,62.3,22.7,27.32,WSW,248,0.0,0.4,22,0.00,,,0.00,WUHU216HW,2013-04-03 05:00:00,
2013-04-02 22:05:00,62.3,22.7,27.32,SE,135,0.0,0.7,22,0.00,,,0.00,WUHU216HW,2013-04-03 05:05:00,
2013-04-02 22:10:00,62.6,23.1,27.32,South,180,0.7,1.6,22,0.00,,,0.00,WUHU216HW,2013-04-03 05:10:00,
2013-04-02 22:15:00,62.6,23.1,27.32,SSE,158,0.4,1.6,22,0.00,,,0.00,WUHU216HW,2013-04-03 05:15:00,
2013-04-02 22:20:00,62.5,22.9,27.32,SE,135,0.0,0.7,22,0.00,,,0.00,WUHU216HW,2013-04-03 05:20:00,
2013-04-02 22:25:00,62.3,22.7,27.32,SE,135,0.0,0.7,22,0.00,,,0.00,WUHU216HW,2013-04-03 05:25:00,
2013-04-02 22:30:00,62.1,22.6,27.32,SSE,158,0.0,0.0,22,0.00,,,0.00,WUHU216HW,2013-04-03 05:30:00,
2013-04-02 22:35:00,61.9,21.4,27.32,SSW,203,0.4,0.9,21,0.00,,,0.00,WUHU216HW,2013-04-03 05:35:00,
2013-04-02 22:40:00,61.7,21.3,27.32,SSW,203,0.0,0.9,21,0.00,,,0.00,WUHU216HW,2013-04-03 05:40:00,
2013-04-02 22:45:00,61.6,21.2,27.33,SSE,158,0.0,1.1,21,0.00,,,0.00,WUHU216HW,2013-04-03 05:45:00,
2013-04-02 22:50:00,61.6,21.2,27.33,SSE,158,0.0,1.1,21,0.00,,,0.00,WUHU216HW,2013-04-03 05:50:00,
2013-04-02 22:55:00,61.6,21.2,27.32,ESE,113,0.0,1.1,21,0.00,,,0.00,WUHU216HW,2013-04-03 05:55:00,
2013-04-02 23:00:00,61.6,21.2,27.32,SSE,158,0.4,1.1,21,0.00,,,0.00,WUHU216HW,2013-04-03 06:00:00,
2013-04-02 23:05:00,61.4,21.0,27.32,South,180,0.4,1.1,21,0.00,,,0.00,WUHU216HW,2013-04-03 06:05:00,
2013-04-02 23:10:00,61.2,20.9,27.32,SSW,203,0.7,1.1,21,0.00,,,0.00,WUHU216HW,2013-04-03 06:10:00,
2013-04-02 23:15:00,61.2,20.9,27.32,South,180,0.4,1.6,21,0.00,,,0.00,WUHU216HW,2013-04-03 06:15:00,
2013-04-02 23:20:00,61.0,20.7,27.32,SSE,158,0.0,1.6,21,0.00,,,0.00,WUHU216HW,2013-04-03 06:20:00,
2013-04-02 23:25:00,61.0,21.7,27.32,SSE,158,0.0,0.4,22,0.00,,,0.00,WUHU216HW,2013-04-03 06:25:00,
2013-04-02 23:30:00,60.8,21.5,27.32,SE,135,0.2,1.1,22,0.00,,,0.00,WUHU216HW,2013-04-03 06:30:00,
2013-04-02 23:35:00,60.8,21.5,27.32,SE,135,0.0,1.1,22,0.00,,,0.00,WUHU216HW,2013-04-03 06:35:00,
2013-04-02 23:40:00,60.8,20.6,27.32,SE,135,0.2,0.9,21,0.00,,,0.00,WUHU216HW,2013-04-03 06:40:00,
2013-04-02 23:45:00,60.7,21.3,27.32,SE,135,0.0,0.7,22,0.00,,,0.00,WUHU216HW,2013-04-03 06:45:00,
2013-04-02 23:50:00,60.5,21.3,27.32,SE,135,0.0,0.7,22,0.00,,,0.00,WUHU216HW,2013-04-03 06:50:00,
2013-04-02 23:55:00,60.3,21.1,27.32,SE,135,0.0,0.7,22,0.00,,,0.00,WUHU216HW,2013-04-03 06:55:00,